[[{"header":{"parameterUnit":"m.s-1","parameterCategory":1,"la1":30.2991,"la2":30.254,"lo1":-89.0895,"lo2":-89.0444,"dy":0.0017,"dx":0.0017,"nx":28,"ny":28,"refTime":"2024-04-20T03:00:00:Z","depth":0,"parameterNumber":2,"parameterNumberName":"U-component_of_WINDS"},"data":[0,0,0,0,0,0,0,0,0,0,0,0,0,0,0,0,0,0,0,0,0,0,0,0,0,0,0,0,0,0,0,0,0,0,0,0,0,0,0,0,0,0,0,0,0,0,0,0,0,0,0,0,0,0,0,0,0,0,0.7072,0.7073,0,0.7156,0.7157,0.7158,0.718,0.7179,0.7179,0.7178,0.7262,0.7265,0.7267,0,0,0,0,0,0,0,0,0,0,0,0,0,0.693,0.6932,0.7072,0.7073,0.7074,0.7156,0.7157,0.7158,0.718,0.7179,0.7179,0.7178,0.7261,0.7264,0.7268,0,0,0,0,0,0,0,0,0,0,0,0,0,0.7,0.6933,0.7072,0.7095,0.7098,0.7156,0.7157,0.7159,0.718,0.7179,0.7179,0.7178,0.726,0.7264,0.7268,0.7308,0,0,0.7281,0.7282,0,0,0,0,0,0,0,0,0.6996,0.7006,0.7091,0.7094,0.7097,0.7157,0.7138,0.7209,0.718,0.7149,0.7178,0.7178,0.7228,0.7234,0.7252,0.7312,0.7316,0.7281,0.7283,0.7285,0.7286,0,0,0,0,0,0,0,0.6991,0.7002,0.7105,0.7092,0.7096,0.7101,0.711,0.7151,0.7191,0.7152,0.7153,0.7163,0.7229,0.7248,0.7254,0.7317,0.7281,0.7284,0.7287,0.7288,0.7415,0.7416,0,0,0,0,0,0,0.6983,0.6998,0.7103,0.7108,0.7044,0.7104,0.7114,0.7138,0.7191,0.7198,0.7164,0.7164,0.7241,0.7249,0.7257,0.7307,0.7285,0.7289,0.7291,0.7414,0.7415,0.7417,0,0,0,0,0,0,0.698,0.6992,0.7099,0.7053,0.7068,0.7107,0.7134,0.714,0.7159,0.72,0.7207,0.7175,0.7241,0.7251,0.7296,0.731,0.7291,0.7294,0.7413,0.7415,0.7416,0.7409,0,0,0,0,0,0,0.6975,0.6991,0.7007,0.7054,0.707,0.7137,0.7135,0.7143,0.7166,0.7167,0.7213,0.722,0.7241,0.7289,0.73,0.7316,0.7297,0.7412,0.7414,0.7416,0.7408,0.741,0.7411,0,0,0,0,0,0.697,0.7,0.7007,0.702,0.7091,0.7138,0.7147,0.7171,0.7167,0.7183,0.721,0.7218,0.7307,0.7294,0.7305,0.7323,0.7411,0.7413,0.7415,0.7407,0.7409,0.7411,0,0,0,0,0,0,0.6953,0.7007,0.7015,0.7062,0.7095,0.7141,0.7162,0.7173,0.7208,0.7207,0.7236,0.7246,0.7288,0.731,0.7294,0.7365,0.7359,0.7364,0.7349,0.7351,0.7353,0.7347,0.7301,0,0,0,0,0,0.6955,0.6989,0.7034,0.7071,0.7088,0.7122,0.7144,0.716,0.7195,0.7209,0.7239,0.7273,0.7309,0.7331,0.7366,0.7411,0.7421,0.7429,0.7431,0.7432,0.7435,0.7461,0.7465,0.7423,0.7423,0.7423,0,0,0.6958,0.6992,0.7012,0.7068,0.7096,0.7131,0.7134,0.717,0.7196,0.7215,0.7259,0.7282,0.7321,0.7366,0.7388,0.7386,0.745,0.7435,0.7436,0.7438,0.7464,0.7468,0.7471,0.7425,0.7425,0.7424,0,0,0.6982,0.7011,0.7045,0.7074,0.7116,0.7139,0.7148,0.7193,0.7209,0.7254,0.7269,0.73,0.7361,0.7389,0.7411,0.7447,0.7456,0.7457,0.7466,0.7491,0.7494,0.7497,0.751,0.7514,0.7461,0.7461,0.7461,0,0.6981,0.7034,0.7061,0.7097,0.7122,0.7142,0.7176,0.7202,0.7253,0.7269,0.7267,0.7345,0.7372,0.7424,0.7433,0.7451,0.746,0.7452,0.7492,0.7495,0.7498,0.751,0.7515,0.7461,0.7461,0.7461,0.7461,0,0.703,0.7067,0.7089,0.714,0.7167,0.7202,0.7234,0.7258,0.7272,0.7295,0.7341,0.7376,0.7418,0.7432,0.7445,0.7486,0.7483,0.7486,0.7481,0.7502,0.7514,0.7519,0.7461,0.7461,0.7461,0.7461,0,0,0.7044,0.711,0.7118,0.7141,0.7191,0.7219,0.7255,0.7298,0.7318,0.7353,0.7384,0.7436,0.7439,0.7464,0.7481,0.7503,0.7529,0.7503,0.7504,0.7506,0.7576,0.7573,0.7578,0.7536,0.7537,0.7538,0.7572,0,0.7074,0.714,0.7166,0.7219,0.7253,0.7273,0.7305,0.7338,0.7361,0.7393,0.7419,0.7455,0.7456,0.7472,0.7494,0.7521,0.7543,0.7519,0.7564,0.7565,0.7553,0.7584,0.7581,0.7612,0.7577,0.7578,0.7578,0,0.7117,0.7154,0.7211,0.7257,0.7272,0.73,0.7341,0.7372,0.7411,0.7426,0.7455,0.7471,0.7509,0.7502,0.7555,0.7538,0.7559,0.7575,0.7577,0.7581,0.7572,0.7589,0.7622,0.7627,0.7586,0.7586,0.7585,0,0.712,0.7184,0.7227,0.7247,0.7301,0.732,0.7344,0.7382,0.7406,0.7443,0.7459,0.7498,0.752,0.7551,0.7577,0.757,0.7628,0.7623,0.7641,0.764,0.7651,0.765,0.7688,0.7665,0.7665,0.7665,0.7665,0,0.715,0.7184,0.723,0.7256,0.7294,0.7324,0.7361,0.7386,0.742,0.7451,0.7471,0.7499,0.7533,0.7566,0.7587,0.7628,0.7637,0.765,0.7655,0.7648,0.7646,0.7661,0.7659,0.7666,0.7666,0.7666,0.7666,0,0.716,0.7192,0.724,0.7289,0.7302,0.7328,0.7369,0.7395,0.742,0.7459,0.747,0.7508,0.7548,0.7578,0.7629,0.7643,0.7686,0.7692,0.7673,0.7676,0.7692,0.769,0.774,0.7748,0.772,0.772,0.7721,0,0.7177,0.7204,0.7256,0.7279,0.7302,0.7339,0.7364,0.7395,0.742,0.7467,0.7487,0.7528,0.7563,0.7626,0.7657,0.7697,0.7703,0.7718,0.7709,0.7701,0.7703,0.7701,0.7703,0.7719,0.7719,0.7719,0.7719,0,0.7203,0.7218,0.7254,0.7296,0.7326,0.736,0.7395,0.7412,0.7449,0.7477,0.7518,0.7545,0.7598,0.7639,0.7682,0.7706,0.7719,0.7722,0.7728,0.7721,0.7709,0.7715,0.7676,0.772,0.772,0.772,0.772,0.772,0.7216,0.7241,0.7282,0.7322,0.7352,0.7384,0.7411,0.744,0.7475,0.7522,0.7538,0.758,0.7619,0.7678,0.7702,0.7736,0.7736,0.7745,0.7747,0.7749,0.7748,0.7704,0.7744,0.7744,0.7744,0.7744,0.7744,0,0.7243,0.727,0.7307,0.7356,0.7387,0.7398,0.7437,0.7463,0.75,0.7536,0.757,0.7618,0.7658,0.7694,0.7735,0.7755,0.7762,0.7765,0.7763,0.7769,0.7746,0.7736,0.7759,0.7759,0.7759,0.7759,0.7759,0.7759,0.726,0.7303,0.7323,0.7381,0.7409,0.7452,0.7473,0.7503,0.7532,0.7584,0.7618,0.7642,0.7677,0.7722,0.7759,0.7769,0.7783,0.7784,0.7795,0.7772,0.777,0.7768,0.776,0.7787,0.7787,0.7815,0.7815,0.7816]},{"header":{"parameterUnit":"m.s-1","parameterCategory":1,"la1":30.2991,"la2":30.254,"lo1":-89.0895,"lo2":-89.0444,"dy":0.0017,"dx":0.0017,"nx":28,"ny":28,"refTime":"2024-04-20T03:00:00:Z","depth":0,"parameterNumber":3,"parameterNumberName":"V-component_of_WINDS"},"data":[0,0,0,0,0,0,0,0,0,0,0,0,0,0,0,0,0,0,0,0,0,0,0,0,0,0,0,0,0,0,0,0,0,0,0,0,0,0,0,0,0,0,0,0,0,0,0,0,0,0,0,0,0,0,0,0,0,0,3.5947,3.5946,0,3.5862,3.5861,3.586,3.5779,3.5778,3.5777,3.5776,3.5684,3.5683,3.5681,0,0,0,0,0,0,0,0,0,0,0,0,0,3.6038,3.6037,3.5947,3.5946,3.5945,3.5862,3.5861,3.586,3.5779,3.5778,3.5777,3.5776,3.5685,3.5683,3.5681,0,0,0,0,0,0,0,0,0,0,0,0,0,3.598,3.6036,3.5947,3.5895,3.589,3.5862,3.5861,3.5859,3.578,3.5778,3.5777,3.5775,3.5686,3.5683,3.5681,3.5697,0,0,3.5674,3.5673,0,0,0,0,0,0,0,0,3.5983,3.5977,3.5904,3.5899,3.5892,3.583,3.5859,3.5805,3.578,3.5821,3.5776,3.5775,3.5734,3.5727,3.5714,3.5693,3.5689,3.5674,3.5673,3.5672,3.5671,0,0,0,0,0,0,0,3.5988,3.598,3.5913,3.5903,3.5896,3.5875,3.5865,3.5848,3.5787,3.5818,3.5812,3.5803,3.573,3.5717,3.5712,3.5687,3.5674,3.5672,3.5671,3.567,3.5676,3.5678,0,0,0,0,0,0,3.6,3.5984,3.5916,3.5911,3.5935,3.5875,3.5864,3.5851,3.5787,3.5776,3.5804,3.5799,3.5722,3.5714,3.5708,3.5724,3.5672,3.5669,3.5668,3.5675,3.5677,3.5678,0,0,0,0,0,0,3.6002,3.5995,3.5919,3.5946,3.5935,3.5875,3.5862,3.585,3.5837,3.5777,3.5765,3.5802,3.572,3.5711,3.5701,3.572,3.5668,3.5666,3.5673,3.5675,3.5677,3.5755,0,0,0,0,0,0,3.6005,3.5996,3.6002,3.5946,3.5933,3.5915,3.5863,3.585,3.5834,3.5827,3.5772,3.5761,3.5718,3.5705,3.5699,3.5716,3.5665,3.5671,3.5674,3.5677,3.5751,3.576,3.5768,0,0,0,0,0,3.6009,3.6026,3.6003,3.5995,3.594,3.5916,3.5908,3.586,3.5836,3.5841,3.5803,3.5763,3.5719,3.5705,3.5697,3.5713,3.5669,3.5673,3.5676,3.5747,3.5758,3.5767,0,0,0,0,0,0,3.6083,3.6017,3.5991,3.5991,3.596,3.5903,3.5908,3.5873,3.5847,3.5842,3.5781,3.577,3.5767,3.5738,3.5724,3.5726,3.5689,3.5691,3.5745,3.5755,3.5763,3.577,3.5663,0,0,0,0,0,3.61,3.6087,3.603,3.6035,3.6021,3.5968,3.5955,3.5921,3.5886,3.5872,3.5832,3.5799,3.5777,3.5764,3.5741,3.5746,3.5734,3.5754,3.5762,3.577,3.5772,3.5774,3.5783,3.569,3.569,3.5689,0,0,3.6133,3.6096,3.6091,3.6049,3.6021,3.6009,3.5957,3.5945,3.5936,3.5869,3.5858,3.5829,3.5787,3.5785,3.5782,3.5762,3.5795,3.5774,3.578,3.5779,3.5779,3.5788,3.5796,3.5692,3.5691,3.5691,0,0,3.6188,3.6159,3.6161,3.6135,3.6094,3.6058,3.6059,3.6007,3.5986,3.5974,3.5925,3.5912,3.5876,3.5849,3.5831,3.5879,3.5842,3.5873,3.5917,3.592,3.5927,3.5934,3.5952,3.5959,3.5875,3.5876,3.5876,0,3.6235,3.6216,3.6166,3.6159,3.6142,3.6084,3.6086,3.6062,3.6015,3.6005,3.5983,3.5939,3.5906,3.5898,3.591,3.5897,3.5896,3.5879,3.5931,3.5936,3.5941,3.5958,3.5965,3.588,3.5879,3.5879,3.5878,0,3.6275,3.6263,3.6269,3.6228,3.6212,3.6209,3.6159,3.6149,3.6117,3.6083,3.6073,3.6033,3.6001,3.5997,3.5964,3.5984,3.5973,3.5942,3.5903,3.5955,3.597,3.5976,3.5886,3.5884,3.5883,3.5882,0,0,3.6373,3.6307,3.631,3.6292,3.6244,3.6233,3.6228,3.6199,3.6192,3.6162,3.6156,3.6129,3.61,3.6079,3.6043,3.6046,3.6089,3.6014,3.6012,3.603,3.611,3.6135,3.6143,3.6064,3.6065,3.6066,3.6114,0,3.6421,3.641,3.6367,3.6368,3.6357,3.6303,3.6298,3.6268,3.6238,3.6223,3.6188,3.617,3.6133,3.612,3.6121,3.6084,3.6104,3.6079,3.6058,3.6058,3.6071,3.6151,3.6176,3.6224,3.612,3.612,3.6121,0,3.6475,3.6452,3.6453,3.6408,3.6401,3.6398,3.637,3.6356,3.6321,3.6298,3.6277,3.6238,3.6229,3.6193,3.6181,3.6165,3.6154,3.6135,3.6135,3.6132,3.6093,3.615,3.6238,3.6246,3.613,3.6129,3.6128,0,3.6548,3.6517,3.6514,3.65,3.6446,3.6446,3.6423,3.6386,3.6373,3.6347,3.6338,3.6311,3.6297,3.6277,3.6232,3.621,3.6225,3.6185,3.6206,3.6208,3.6212,3.6212,3.63,3.6204,3.6204,3.6204,3.6203,0,3.6606,3.661,3.6547,3.6545,3.6547,3.6497,3.65,3.6472,3.6441,3.6433,3.6383,3.6376,3.6317,3.6303,3.6267,3.6263,3.6257,3.6238,3.6229,3.6243,3.6246,3.6235,3.6231,3.6205,3.6205,3.6205,3.6204,0,3.6688,3.6646,3.664,3.6591,3.6579,3.6583,3.654,3.6536,3.6504,3.6494,3.6489,3.6437,3.6419,3.6372,3.634,3.6316,3.6322,3.6304,3.6335,3.6329,3.6354,3.6353,3.6438,3.6447,3.6345,3.6346,3.6347,0,3.6729,3.673,3.6682,3.6675,3.6655,3.6642,3.6629,3.6579,3.6567,3.6529,3.653,3.6509,3.6489,3.6462,3.6421,3.6397,3.6378,3.641,3.6374,3.6389,3.638,3.6381,3.6382,3.6418,3.6419,3.642,3.6421,0,3.6805,3.6785,3.6768,3.6746,3.6732,3.6711,3.6687,3.6683,3.6627,3.6617,3.6599,3.6583,3.6553,3.6532,3.6502,3.6478,3.6441,3.6433,3.6437,3.6452,3.647,3.6462,3.6357,3.6431,3.643,3.643,3.6429,3.6429,3.6868,3.6868,3.6835,3.6819,3.6796,3.6776,3.6771,3.6739,3.6724,3.6696,3.6668,3.6653,3.6619,3.6576,3.6555,3.6542,3.6522,3.6528,3.6529,3.6532,3.6539,3.6472,3.6536,3.6536,3.6535,3.6535,3.6535,0,3.6943,3.692,3.6906,3.6875,3.6863,3.6831,3.6804,3.6795,3.6784,3.6756,3.6739,3.6719,3.6699,3.6657,3.6634,3.6632,3.6615,3.6627,3.6627,3.6623,3.6557,3.6556,3.6642,3.6642,3.6642,3.6642,3.6642,3.6642,3.698,3.698,3.6956,3.6944,3.692,3.6907,3.6894,3.6875,3.6853,3.6834,3.6818,3.6792,3.6759,3.6733,3.6714,3.6702,3.6696,3.6715,3.6698,3.6637,3.6627,3.6617,3.6617,3.6714,3.6714,3.6765,3.6765,3.6766]}]]